Wind_Speed
44 44 43 42 41 40 39 37 37 38 40 41 41 42 44 46 48 50 51 53 55 58 60 60 62 64 68 71 73 74 77 79 79 80 85 90 97 103 109 114 115 110 103
43 43 42 41 41 40 39 37 36 37 39 41 42 44 45 46 48 50 53 55 58 59 61 63 65 68 70 72 74 77 79 82 86 88 91 98 105 110 112 109 100 88 78
40 40 40 40 39 39 38 37 36 37 39 42 43 45 46 47 49 52 55 57 59 62 64 66 68 70 72 75 77 80 84 88 93 98 101 105 107 105 98 86 74 64 55
37 37 37 37 37 37 37 38 38 38 39 41 44 45 46 49 51 54 57 59 62 64 67 69 71 73 75 77 81 85 90 95 101 106 108 105 97 84 73 62 51 45 43
34 35 35 35 35 36 37 38 38 38 39 42 44 45 48 51 53 56 59 62 64 66 69 71 73 74 77 82 87 92 98 103 107 107 101 90 74 61 51 43 38 36 36
32 32 32 33 35 36 36 37 37 37 40 42 44 47 50 52 56 59 61 63 66 69 71 72 74 78 82 88 93 99 104 105 103 94 82 67 54 45 39 35 33 31 31
28 29 31 34 35 34 33 34 35 38 40 43 46 49 51 54 57 60 63 66 68 70 71 74 79 83 88 93 98 103 102 95 85 75 62 50 42 38 34 29 29 29 31
28 29 30 30 30 30 31 33 35 38 41 44 47 50 53 55 59 62 65 66 68 70 75 79 84 89 94 99 102 99 88 76 67 58 48 41 38 35 31 28 28 27 28
26 26 27 27 27 29 31 34 37 40 42 45 48 50 54 57 60 63 65 66 70 74 79 84 88 93 99 101 97 86 71 60 52 45 40 39 37 33 32 31 31 30 28
22 22 23 25 27 30 32 35 38 41 44 46 49 52 55 58 61 62 65 69 73 77 82 87 94 98 100 93 81 67 54 46 42 40 39 38 37 36 37 37 35 33 30
19 21 23 25 28 32 35 37 40 42 44 47 51 54 56 58 60 64 68 73 76 81 86 92 96 97 89 76 63 52 44 40 38 37 36 36 37 37 37 38 37 35 32
19 22 25 28 32 34 37 38 39 42 45 49 52 54 56 59 63 67 72 76 80 85 91 94 93 84 70 58 47 41 38 37 36 35 35 35 36 36 36 37 37 36 33
21 24 27 30 33 35 36 37 40 44 47 49 51 54 57 62 66 71 75 79 84 89 92 89 78 65 52 43 38 37 36 35 34 33 34 34 35 35 35 34 34 33 32
23 26 29 31 32 34 36 39 42 45 47 49 51 55 60 64 68 73 77 82 87 89 84 73 60 48 41 38 36 34 33 33 33 32 32 33 33 33 32 31 29 28 27
26 28 30 31 32 35 38 40 43 45 47 50 54 58 62 66 71 76 81 86 88 83 71 56 45 40 39 37 34 33 31 31 32 32 32 31 30 29 29 28 26 25 24
27 28 29 32 34 37 39 41 42 45 49 52 56 61 66 70 75 80 86 88 82 68 53 42 38 37 35 32 30 29 29 30 31 32 30 29 27 26 26 25 24 22 21
27 29 31 34 36 38 39 41 44 49 53 56 61 66 70 75 80 84 86 79 65 50 39 35 34 33 30 27 26 26 28 31 31 30 28 27 27 26 25 24 22 21 20
29 31 33 35 36 37 39 43 47 51 55 61 65 70 74 79 83 83 75 61 47 36 31 30 29 27 24 24 24 27 29 31 30 29 27 26 26 26 26 25 23 20 18
30 32 34 35 36 39 43 47 50 54 58 63 67 73 78 82 81 73 58 43 32 27 24 23 22 21 21 23 25 28 29 29 28 27 27 28 28 28 27 25 22 19 16
32 33 34 35 38 42 46 50 53 57 61 66 71 76 80 78 69 56 42 30 23 19 18 18 19 20 21 24 26 27 27 27 27 27 28 28 29 28 26 24 20 16 13
32 33 34 38 42 45 49 52 56 60 65 71 76 79 77 68 55 41 29 20 15 13 14 15 17 19 21 24 26 27 28 28 28 28 28 29 29 27 25 22 18 14 11
31 34 37 41 45 48 52 56 60 65 70 75 79 77 68 55 41 28 17 11 9 10 11 13 16 18 21 24 26 28 29 29 29 29 29 29 29 27 24 21 17 13 10
34 37 41 44 48 52 55 60 65 70 75 80 77 69 55 41 28 15 8 5 6 7 9 12 15 18 21 24 26 28 29 29 30 30 30 29 28 27 24 21 16 13 10
37 40 44 47 51 56 60 65 71 76 80 78 70 56 41 27 13 4 0 2 5 7 9 12 15 18 22 25 28 30 30 30 30 31 32 31 31 29 26 22 17 13 11
40 43 47 51 56 60 66 72 77 81 79 71 58 41 25 11 3 5 5 4 6 8 10 12 15 18 21 25 28 29 30 30 30 31 33 34 34 32 29 24 18 14 12
42 46 51 56 60 66 72 78 81 79 71 58 42 25 10 4 9 9 7 5 6 8 10 12 14 18 21 23 26 28 28 29 30 31 33 34 35 34 31 27 22 17 14
Wind_Direction
240 242 247 254 261 265 267 269 270 273 277 281 283 284 286 288 292 294 295 296 297 298 298 299 299 299 299 299 300 301 301 302 302 302 302 302 301 301 300 300 300 299 296
239 242 247 254 260 263 266 269 272 276 280 283 285 286 289 292 293 295 297 298 299 300 300 301 301 302 302 302 303 303 303 304 304 304 304 304 303 303 303 302 300 297 295
238 242 248 254 259 263 267 271 275 278 281 284 286 289 291 293 294 296 299 300 301 302 303 304 304 304 304 304 304 305 306 306 306 306 306 306 306 305 303 301 299 297 295
237 243 250 256 261 267 271 275 277 280 282 285 288 290 292 294 296 299 301 302 303 304 305 305 305 305 305 306 307 308 308 307 308 308 309 309 308 305 303 301 298 296 295
239 246 254 260 267 271 273 276 279 282 284 286 289 292 294 297 299 301 303 304 305 306 306 306 306 307 308 309 309 309 309 309 309 310 310 310 308 306 304 301 299 296 297
244 251 259 264 268 272 274 276 279 283 285 288 291 294 297 300 302 303 304 305 306 306 306 307 308 309 309 309 309 310 310 311 312 312 311 310 308 306 304 303 299 296 296
247 253 258 263 268 271 273 276 280 284 287 291 294 298 301 302 303 304 306 307 307 308 309 309 309 309 309 310 311 312 313 313 312 311 311 310 308 307 305 302 300 299 297
250 255 261 264 266 269 274 278 282 287 292 295 298 301 302 303 304 306 307 308 309 310 310 310 310 311 311 312 313 314 314 313 312 311 311 310 309 307 304 302 301 299 298
248 253 258 262 266 271 276 282 287 292 296 298 300 302 303 304 306 307 308 310 310 311 311 311 311 312 313 314 314 315 315 313 311 311 310 310 309 306 304 304 304 302 298
247 252 258 263 270 276 283 289 293 296 298 300 301 302 304 306 307 309 309 310 311 311 312 313 314 315 315 316 316 316 314 311 310 310 310 310 309 307 307 306 305 303 300
249 256 264 271 279 286 290 292 295 297 299 300 302 304 306 307 308 310 311 312 313 314 315 315 316 316 317 317 317 315 313 311 310 310 309 309 308 307 306 305 304 303 301
261 270 278 284 287 290 292 294 296 298 300 302 305 306 308 309 311 312 313 314 315 316 316 317 317 318 318 318 317 315 314 314 314 313 312 310 308 307 306 305 304 303 302
277 283 286 288 290 292 294 296 298 301 303 305 307 308 310 311 312 313 315 316 317 317 318 318 319 319 320 319 318 317 316 317 317 316 315 313 310 307 306 305 303 302 302
286 289 291 292 294 295 297 299 301 303 305 307 309 310 311 312 314 315 316 317 318 318 319 319 319 320 320 319 319 318 319 320 321 322 321 317 313 310 308 306 303 300 299
292 293 294 295 296 299 301 303 305 306 308 309 310 311 312 314 316 318 318 319 319 320 320 319 318 319 321 322 322 323 325 326 327 327 326 324 320 318 315 313 309 304 299
295 295 297 299 300 302 304 306 308 309 309 310 312 314 316 318 319 320 320 320 321 320 319 319 320 322 324 326 327 329 332 333 333 332 331 331 329 326 323 320 317 312 306
298 299 300 301 303 306 308 309 311 312 313 314 316 317 319 320 321 321 321 321 321 320 320 321 324 327 330 333 335 336 336 336 336 335 335 335 335 333 330 326 321 316 312
300 300 302 304 306 308 310 311 312 313 315 316 318 319 320 321 321 322 322 321 321 322 324 327 332 336 340 343 343 342 339 338 338 338 337 336 336 335 333 330 324 318 313
302 303 305 307 309 311 312 313 314 315 316 318 320 322 322 322 322 322 322 322 323 326 332 338 344 350 353 353 350 347 344 343 343 343 342 340 338 336 334 331 327 321 318
305 307 308 310 312 313 314 315 316 317 320 321 323 323 323 323 322 322 323 323 326 333 343 351 358 2 3 1 359 356 353 352 352 351 349 346 344 342 341 339 336 331 328
309 309 311 312 314 315 316 317 318 320 322 323 323 324 323 322 321 320 320 322 329 341 353 1 6 9 10 9 6 3 1 0 360 358 356 354 352 350 349 348 347 346 347
310 311 312 314 316 317 319 320 321 322 323 324 324 324 323 321 320 318 317 321 334 348 359 7 12 14 13 10 7 6 6 7 6 4 3 1 359 358 356 355 357 1 7
312 313 314 317 319 320 321 322 323 324 325 324 324 323 322 319 317 313 312 329 350 360 8 14 18 18 15 11 9 9 9 10 9 9 8 6 4 4 4 5 8 16 27
314 315 317 319 320 322 323 324 325 325 325 324 324 322 319 315 308 289 236 38 24 22 23 22 21 18 15 14 14 14 14 14 14 13 13 13 12 12 12 14 20 32 48
316 317 319 321 323 324 325 326 326 325 324 324 323 320 316 304 237 164 134 86 55 39 30 24 20 17 14 13 14 16 18 18 18 18 19 19 20 21 22 26 34 47 61
318 319 322 324 325 326 326 325 325 324 323 323 321 317 303 203 166 155 138 103 60 36 23 16 13 10 9 9 10 13 16 19 21 22 23 24 26 28 31 36 43 52 62
Height
5678 5682 5685 5687 5688 5688 5687 5686 5685 5684 5683 5680 5678 5675 5672 5668 5664 5659 5655 5649 5644 5637 5631 5623 5616 5608 5601 5593 5584 5575 5566 5556 5549 5544 5529 5514 5499 5483 5468 5452 5436 5423 5410
5670 5675 5678 5680 5681 5680 5679 5678 5678 5676 5674 5672 5669 5666 5662 5658 5653 5648 5643 5638 5631 5624 5616 5608 5600 5592 5583 5574 5565 5555 5545 5534 5524 5518 5509 5492 5474 5454 5436 5420 5403 5389 5379
5663 5668 5671 5673 5673 5673 5672 5671 5670 5668 5665 5663 5660 5656 5652 5647 5642 5637 5632 5625 5617 5609 5601 5593 5584 5575 5566 5556 5546 5536 5525 5513 5500 5488 5478 5463 5444 5424 5407 5392 5378 5368 5362
5657 5661 5664 5665 5666 5666 5665 5664 5661 5659 5656 5654 5650 5646 5642 5637 5632 5626 5619 5612 5603 5595 5586 5577 5568 5558 5548 5538 5527 5515 5503 5489 5474 5459 5446 5431 5413 5396 5381 5371 5363 5356 5351
5653 5656 5658 5659 5659 5659 5658 5656 5653 5651 5648 5645 5641 5636 5631 5626 5620 5613 5606 5598 5590 5581 5571 5561 5552 5542 5531 5519 5507 5493 5478 5462 5446 5431 5416 5401 5387 5376 5365 5357 5352 5347 5342
5648 5650 5652 5652 5652 5651 5650 5648 5645 5642 5639 5635 5631 5626 5621 5615 5608 5601 5593 5585 5576 5566 5556 5546 5536 5525 5514 5501 5486 5469 5451 5433 5418 5403 5390 5378 5369 5361 5354 5348 5343 5339 5335
5642 5644 5645 5645 5644 5643 5641 5639 5636 5633 5630 5626 5621 5616 5609 5603 5596 5588 5580 5571 5562 5551 5541 5530 5520 5507 5494 5479 5464 5446 5427 5407 5392 5380 5372 5363 5356 5350 5345 5340 5335 5330 5325
5637 5638 5638 5637 5636 5635 5633 5631 5628 5625 5621 5616 5611 5605 5598 5591 5584 5576 5567 5558 5547 5537 5526 5514 5501 5487 5471 5456 5441 5423 5405 5389 5375 5365 5359 5352 5346 5340 5335 5332 5327 5323 5319
5630 5631 5631 5630 5629 5628 5626 5624 5620 5616 5611 5606 5600 5594 5587 5580 5572 5563 5554 5545 5535 5523 5511 5497 5482 5467 5450 5433 5418 5403 5388 5374 5363 5355 5349 5343 5337 5331 5326 5322 5319 5315 5311
5624 5625 5624 5624 5623 5621 5619 5615 5611 5606 5601 5595 5589 5583 5576 5568 5559 5551 5542 5533 5522 5509 5495 5479 5462 5445 5427 5409 5395 5384 5374 5364 5356 5349 5342 5336 5329 5324 5318 5313 5308 5305 5301
5619 5619 5619 5618 5616 5614 5611 5606 5601 5597 5591 5586 5579 5572 5565 5557 5548 5539 5528 5516 5503 5490 5475 5459 5442 5424 5406 5391 5379 5370 5362 5356 5349 5342 5335 5329 5322 5316 5310 5304 5299 5294 5291
5615 5614 5613 5612 5609 5606 5602 5597 5592 5587 5581 5575 5568 5560 5552 5544 5534 5524 5511 5498 5485 5471 5455 5438 5421 5404 5390 5378 5368 5361 5354 5348 5341 5334 5328 5321 5315 5309 5302 5296 5290 5285 5281
5610 5609 5607 5605 5601 5597 5592 5588 5583 5577 5571 5564 5557 5549 5540 5531 5520 5508 5496 5482 5468 5452 5435 5417 5402 5389 5379 5369 5361 5354 5348 5341 5335 5328 5321 5314 5307 5301 5294 5289 5282 5277 5273
5604 5602 5600 5596 5593 5588 5584 5579 5573 5567 5561 5554 5547 5538 5529 5518 5507 5495 5481 5467 5452 5435 5417 5402 5389 5379 5371 5363 5355 5348 5341 5335 5328 5321 5314 5306 5299 5293 5286 5281 5276 5271 5267
5598 5596 5592 5589 5585 5580 5575 5569 5563 5557 5550 5544 5536 5526 5516 5505 5492 5479 5464 5449 5433 5417 5403 5391 5381 5372 5364 5356 5348 5341 5335 5328 5321 5314 5307 5299 5292 5286 5279 5274 5269 5264 5261
5592 5589 5585 5581 5576 5571 5565 5560 5553 5547 5540 5532 5523 5512 5501 5489 5476 5462 5446 5430 5415 5402 5390 5381 5373 5365 5358 5351 5344 5337 5330 5324 5316 5309 5301 5294 5288 5281 5275 5269 5263 5259 5255
5585 5581 5577 5572 5567 5562 5556 5550 5543 5536 5526 5517 5508 5497 5485 5472 5459 5445 5429 5413 5401 5391 5382 5374 5367 5360 5353 5346 5340 5334 5327 5320 5313 5305 5298 5291 5284 5277 5271 5265 5259 5254 5250
5577 5573 5569 5564 5559 5553 5548 5541 5534 5525 5516 5506 5495 5483 5470 5457 5443 5428 5413 5400 5390 5383 5376 5370 5363 5356 5350 5344 5338 5331 5324 5317 5309 5302 5295 5288 5281 5274 5267 5261 5255 5250 5246
5570 5565 5561 5556 5550 5545 5538 5531 5523 5515 5505 5495 5483 5469 5455 5439 5424 5411 5400 5391 5383 5378 5372 5366 5360 5354 5348 5342 5336 5329 5322 5315 5307 5299 5292 5285 5277 5270 5263 5257 5251 5246 5243
5562 5557 5552 5547 5542 5535 5528 5521 5512 5503 5492 5481 5468 5455 5440 5424 5410 5399 5390 5384 5379 5374 5370 5365 5359 5353 5348 5342 5335 5328 5321 5313 5305 5297 5290 5282 5274 5267 5260 5253 5248 5244 5241
5554 5549 5544 5538 5533 5526 5518 5510 5501 5490 5479 5466 5452 5438 5424 5411 5399 5390 5384 5379 5375 5372 5368 5363 5358 5353 5347 5342 5335 5328 5320 5312 5304 5297 5289 5281 5273 5265 5258 5252 5247 5243 5240
5546 5541 5536 5530 5523 5516 5507 5498 5488 5477 5464 5451 5436 5421 5407 5396 5388 5382 5378 5376 5373 5370 5367 5362 5358 5353 5348 5342 5335 5328 5321 5313 5305 5297 5289 5281 5273 5265 5258 5252 5247 5244 5241
5538 5533 5527 5521 5513 5505 5495 5485 5474 5461 5448 5434 5419 5405 5394 5385 5379 5376 5374 5373 5371 5369 5366 5362 5358 5354 5349 5343 5336 5329 5322 5315 5307 5299 5291 5283 5275 5268 5260 5253 5249 5245 5243
5530 5525 5518 5511 5502 5493 5482 5471 5458 5445 5431 5416 5402 5391 5382 5376 5373 5372 5372 5371 5370 5368 5365 5362 5358 5354 5349 5344 5337 5331 5324 5317 5310 5302 5294 5286 5278 5269 5262 5256 5251 5248 5246
5522 5516 5508 5500 5490 5480 5468 5455 5441 5427 5413 5399 5387 5378 5372 5370 5369 5370 5371 5371 5369 5367 5365 5362 5358 5354 5350 5345 5339 5333 5326 5320 5313 5305 5298 5289 5281 5273 5266 5260 5256 5253 5252
5513 5506 5497 5488 5477 5465 5452 5439 5424 5409 5396 5384 5375 5369 5367 5366 5368 5369 5370 5370 5369 5368 5365 5362 5359 5355 5351 5346 5341 5335 5329 5323 5317 5310 5302 5295 5287 5280 5273 5267 5263 5260 5258